Weather History for Winona, MN

Change the Weather History Date:

Monday, October 7, 2013

  Actual Average Record
Temperature  
Mean Temperature 55 °F -  
Max Temperature 68 °F 63 °F 86 °F (1997)
Min Temperature 42 °F 44 °F 24 °F (2001)
Degree Days  
Heating Degree Days 10    
Growing Degree Days 5 (Base 50)    
Moisture  
Dew Point 45 °F    
Average Humidity 78    
Maximum Humidity 100    
Minimum Humidity 32    
Precipitation  
Precipitation 0.00 in - - ()
Sea Level Pressure  
Sea Level Pressure 29.93 in    
Wind  
Wind Speed 5 mph (NNW)    
Max Wind Speed 13 mph    
Max Gust Speed 20 mph    
Visibility 10 miles    
Events      
Averages and records for this station are not official NWS values.
T = Trace of Precipitation, MM = Missing Value Source: NWS Daily Summary

Daily Weather History Graph

Daily Weather History Graph

Search for Another Location

Airport:

Trip Planner

Search our weather history database for the weather conditions in past years. The results will help you decide how hot, cold, wet, or windy it might be!

Date:

Astronomy

Oct. 07, 2013 Rise Set
Actual Time 7:12 AM CDT 6:36 PM CDT
Civil Twilight 6:43 AM CDT 7:05 PM CDT
Nautical Twilight 6:09 AM CDT 7:38 PM CDT
Astronomical Twilight 5:35 AM CDT 8:12 PM CDT
Moon 10:08 AM CDT (10/7) 8:14 PM CDT (10/7)
Length of Visible Light 12h 22m
Length of Day
11h 24m
Waxing Crescent, 9% of the Moon is Illuminated
Oct 7
Waxing Crescent
Oct 11
First Quarter
Oct 18
Full
Oct 26
Last Quarter
Nov 3
New

Hourly Weather History & Observations

Time (CDT) Temp. Windchill Dew Point Humidity Pressure Visibility Wind Dir Wind Speed Gust Speed Precip Events Conditions
12:16 AM 48.2 °F - 46.4 °F 93% 29.80 in 10.0 mi NW 12.7 mph - N/A   Overcast
12:36 AM 48.2 °F - 46.4 °F 93% 29.80 in 10.0 mi NW 9.2 mph - N/A   Overcast
12:56 AM 48.2 °F - 46.4 °F 93% 29.81 in 10.0 mi NW 11.5 mph 19.6 mph N/A   Overcast
1:16 AM 48.2 °F - 46.4 °F 93% 29.82 in 10.0 mi NW 8.1 mph 12.7 mph N/A   Mostly Cloudy
1:36 AM 48.2 °F - 46.4 °F 93% 29.82 in 10.0 mi NW 8.1 mph - N/A   Mostly Cloudy
1:56 AM 48.2 °F - 46.4 °F 93% 29.82 in 10.0 mi NW 4.6 mph - N/A   Mostly Cloudy
2:16 AM 48.2 °F - 46.4 °F 93% 29.83 in 10.0 mi NNW 6.9 mph - N/A   Mostly Cloudy
2:36 AM 48.2 °F - 46.4 °F 93% 29.82 in 10.0 mi NW 4.6 mph - N/A   Overcast
2:57 AM 48.2 °F - 46.4 °F 93% 29.82 in 10.0 mi WNW 6.9 mph - N/A   Overcast
3:16 AM 48.2 °F - 46.4 °F 93% 29.83 in 10.0 mi WNW 5.8 mph - N/A   Overcast
3:37 AM 48.2 °F - 46.4 °F 93% 29.83 in 10.0 mi WNW 5.8 mph - N/A   Scattered Clouds
3:56 AM 48.2 °F - 46.4 °F 93% 29.83 in 10.0 mi NW 5.8 mph - N/A   Clear
4:16 AM 46.4 °F 43.5 °F 44.6 °F 93% 29.83 in 10.0 mi NW 5.8 mph - N/A   Clear
4:37 AM 46.4 °F 43.5 °F 44.6 °F 93% 29.85 in 10.0 mi NW 5.8 mph - N/A   Clear
4:56 AM 46.4 °F 43.5 °F 44.6 °F 93% 29.85 in 10.0 mi WNW 5.8 mph - N/A   Clear
5:16 AM 46.4 °F 44.3 °F 44.6 °F 93% 29.85 in 10.0 mi NW 4.6 mph - N/A   Clear
5:37 AM 42.8 °F 41.1 °F 42.8 °F 100% 29.85 in 10.0 mi NNW 3.5 mph - N/A   Clear
5:56 AM 44.6 °F - 42.8 °F 93% 29.85 in 10.0 mi Calm Calm - N/A   Clear
6:17 AM 42.8 °F - 41.0 °F 93% 29.86 in 10.0 mi Calm Calm - N/A   Scattered Clouds
6:36 AM 42.8 °F - 41.0 °F 93% 29.86 in 10.0 mi Calm Calm - N/A   Scattered Clouds
6:56 AM 42.8 °F 40.1 °F 42.8 °F 100% 29.87 in 10.0 mi NW 4.6 mph - N/A   Overcast
7:17 AM 42.8 °F 41.1 °F 42.8 °F 100% 29.87 in 10.0 mi NNW 3.5 mph - N/A   Overcast
7:36 AM 42.8 °F 41.1 °F 42.8 °F 100% 29.88 in 10.0 mi NNW 3.5 mph - N/A   Overcast
7:56 AM 44.6 °F 43.1 °F 42.8 °F 93% 29.89 in 10.0 mi NW 3.5 mph - N/A   Mostly Cloudy
8:17 AM 46.4 °F - 44.6 °F 93% 29.89 in 10.0 mi Calm Calm - N/A   Mostly Cloudy
8:36 AM 48.2 °F - 46.4 °F 93% 29.90 in 10.0 mi Calm Calm - N/A   Mostly Cloudy
8:56 AM 48.2 °F - 44.6 °F 87% 29.90 in 10.0 mi Calm Calm - N/A   Scattered Clouds
9:16 AM 50.0 °F - 44.6 °F 82% 29.91 in 10.0 mi NW 5.8 mph - N/A   Clear
9:36 AM 51.8 °F - 44.6 °F 76% 29.92 in 10.0 mi WNW 6.9 mph - N/A   Clear
9:56 AM 51.8 °F - 44.6 °F 76% 29.92 in 10.0 mi WNW 4.6 mph - N/A   Clear
10:17 AM 53.6 °F - 44.6 °F 72% 29.93 in 10.0 mi Calm Calm - N/A   Clear
10:36 AM 53.6 °F - 44.6 °F 72% 29.94 in 10.0 mi NW 4.6 mph - N/A   Clear
10:56 AM 55.4 °F - 46.4 °F 72% 29.94 in 10.0 mi NW 4.6 mph - N/A   Clear
11:16 AM 55.4 °F - 46.4 °F 72% 29.95 in 10.0 mi NE 4.6 mph - N/A   Clear
11:36 AM 55.4 °F - 46.4 °F 72% 29.95 in 10.0 mi Calm Calm - N/A   Clear
11:57 AM 59.0 °F - 48.2 °F 67% 29.96 in 10.0 mi NE 4.6 mph - N/A   Clear
12:16 PM 59.0 °F - 48.2 °F 67% 29.95 in 10.0 mi Calm Calm - N/A   Clear
12:36 PM 60.8 °F - 48.2 °F 63% 29.95 in 7.0 mi NE 3.5 mph - N/A   Clear
12:57 PM 60.8 °F - 48.2 °F 63% 29.95 in 3.0 mi Calm Calm - N/A   Haze
1:16 PM 60.8 °F - 46.4 °F 59% 29.95 in 7.0 mi ENE 4.6 mph - N/A   Clear
1:36 PM 60.8 °F - 46.4 °F 59% 29.94 in 2.5 mi East 3.5 mph - N/A   Haze
1:57 PM 62.6 °F - 44.6 °F 52% 29.95 in 10.0 mi NNE 8.1 mph - N/A   Clear
2:16 PM 64.4 °F - 44.6 °F 49% 29.95 in 10.0 mi North 3.5 mph - N/A   Clear
2:36 PM 64.4 °F - 44.6 °F 49% 29.95 in 10.0 mi NNE 3.5 mph - N/A   Clear
2:56 PM 66.2 °F - 42.8 °F 43% 29.96 in 7.0 mi North 6.9 mph - N/A   Clear
3:17 PM 66.2 °F - 42.8 °F 43% 29.96 in 10.0 mi North 4.6 mph - N/A   Clear
3:36 PM 66.2 °F - 41.0 °F 40% 29.96 in 10.0 mi NNE 4.6 mph - N/A   Clear
3:56 PM 68.0 °F - 42.8 °F 40% 29.96 in 10.0 mi NNW 6.9 mph - N/A   Clear
4:16 PM 66.2 °F - 35.6 °F 32% 29.97 in 10.0 mi NW 10.4 mph - N/A   Clear
4:36 PM 66.2 °F - 37.4 °F 35% 29.97 in 10.0 mi North 3.5 mph 16.1 mph N/A   Clear
4:56 PM 62.6 °F - 37.4 °F 39% 29.97 in 10.0 mi Calm Calm - N/A   Clear
5:17 PM 62.6 °F - 41.0 °F 45% 29.97 in 10.0 mi NNW 3.5 mph - N/A   Clear
5:36 PM 62.6 °F - 39.2 °F 42% 29.97 in 10.0 mi Calm Calm - N/A   Clear
5:56 PM 62.6 °F - 41.0 °F 45% 29.98 in 10.0 mi Calm Calm - N/A   Clear
6:17 PM 59.0 °F - 46.4 °F 63% 29.98 in 10.0 mi Calm Calm - N/A   Clear
6:36 PM 55.4 °F - 46.4 °F 72% 29.98 in 10.0 mi Calm Calm - N/A   Clear
6:56 PM 55.4 °F - 44.6 °F 67% 29.99 in 10.0 mi Calm Calm - N/A   Clear
7:17 PM 53.6 °F - 50.0 °F 88% 29.99 in 10.0 mi Calm Calm - N/A   Clear
7:36 PM 51.8 °F - 46.4 °F 82% 29.99 in 10.0 mi Calm Calm - N/A   Clear
7:56 PM 51.8 °F - 50.0 °F 94% 30.00 in 10.0 mi Calm Calm - N/A   Clear
8:17 PM 50.0 °F - 48.2 °F 94% 30.01 in 10.0 mi Calm Calm - N/A   Clear
8:36 PM 48.2 °F - 46.4 °F 93% 30.02 in 10.0 mi Calm Calm - N/A   Clear
8:56 PM 48.2 °F - 46.4 °F 93% 30.02 in 10.0 mi Calm Calm - N/A   Clear
9:17 PM 48.2 °F - 46.4 °F 93% 30.03 in 10.0 mi Calm Calm - N/A   Clear
9:36 PM 48.2 °F - 46.4 °F 93% 30.03 in 10.0 mi Calm Calm - N/A   Clear
9:56 PM 48.2 °F - 46.4 °F 93% 30.03 in 10.0 mi Calm Calm - N/A   Clear
10:16 PM 48.2 °F - 46.4 °F 93% 30.04 in 10.0 mi Calm Calm - N/A   Clear
10:36 PM 46.4 °F - 44.6 °F 93% 30.04 in 10.0 mi Calm Calm - N/A   Clear
10:56 PM 46.4 °F - 44.6 °F 93% 30.04 in 10.0 mi Calm Calm - N/A   Clear
11:16 PM 46.4 °F - 44.6 °F 93% 30.04 in 10.0 mi Calm Calm - N/A   Clear
11:37 PM 46.4 °F - 44.6 °F 93% 30.04 in 10.0 mi Calm Calm - N/A   Clear
11:56 PM 46.4 °F - 44.6 °F 93% 30.04 in 10.0 mi Calm Calm - N/A   Clear